[[{"header":{"parameterUnit":"m.s-1","parameterCategory":1,"la1":30.2992,"la2":30.254,"lo1":-89.0895,"lo2":-89.0443,"dy":0.0025,"dx":0.0025,"nx":19,"ny":19,"refTime":"2026-05-18T21:00:00:Z","depth":0,"parameterNumber":2,"parameterNumberName":"U-component_of_WINDS"},"data":[0,0,0,-4.8668,-4.8672,-4.8834,-4.8835,-4.9056,-4.9058,0,0,0,0,0,0,0,0,0,0,0,-4.8628,-4.863,-4.8668,-4.8672,-4.8834,-4.8835,-4.9056,-4.9058,0,0,0,0,0,0,0,0,0,0,0,-4.8627,-4.8629,-4.8631,-4.8673,-4.8834,-4.8835,-4.9055,-4.8928,0,0,0,0,0,0,0,0,0,0,-4.8768,-4.8738,-4.8629,-4.8631,-4.8674,-4.8834,-4.8835,-4.8922,-4.8936,-4.8988,0,-4.9037,0,-4.9051,-4.9074,-4.9075,0,0,0,-4.8666,-4.8726,-4.8763,-4.8632,-4.8675,-4.8834,-4.876,-4.893,-4.8946,-4.9007,-4.904,-4.9047,-4.9055,-4.9075,-4.9077,-4.9398,-4.94,0,0,-4.8657,-4.8661,-4.8752,-4.8774,-4.875,-4.8754,-4.8765,-4.8939,-4.8974,-4.904,-4.9052,-4.9059,-4.9077,-4.9079,-4.9397,-4.9399,0,0,0,-4.8636,-4.8655,-4.8687,-4.8765,-4.8794,-4.8759,-4.8771,-4.8967,-4.8977,-4.9055,-4.9061,-4.9078,-4.9081,-4.9395,-4.9398,-4.9488,0,0,0,-4.863,-4.8642,-4.8684,-4.8688,-4.8791,-4.8882,-4.8795,-4.8965,-4.8984,-4.906,-4.9078,-4.9084,-4.9393,-4.9396,-4.9481,-4.953,0,0,0,-4.8615,-4.864,-4.8667,-4.8687,-4.8758,-4.8879,-4.8899,-4.8969,-4.8989,-4.9075,-4.9084,-4.9391,-4.9396,-4.9475,-4.952,-4.9615,0,0,0,-4.8599,-4.8744,-4.8668,-4.8833,-4.8756,-4.8935,-4.8898,-4.9031,-4.9116,-4.908,-4.9393,-4.9397,-4.9474,-4.9514,-4.9609,-4.9695,-4.9731,0,0,-4.8784,-4.8767,-4.8864,-4.88,-4.8993,-4.891,-4.9116,-4.919,-4.9195,-4.9331,-4.9338,-4.9484,-4.9519,-4.9614,-4.9938,-4.9967,0,0,0,-4.8924,-4.8993,-4.9044,-4.9125,-4.9186,-4.9242,-4.9285,-4.9313,-4.9428,-4.9265,-4.9545,-4.9566,-4.9621,-4.9662,-4.9686,-4.9733,-4.9417,-4.9416,-4.9416,-4.9189,-4.9189,-4.9349,-4.9369,-4.9449,-4.9493,-4.9558,-4.9603,-4.9578,-4.9645,-4.9684,-4.9881,-4.9929,-4.9947,-4.9996,-4.9731,-4.9731,-4.9732,-4.9732,-4.9459,-4.9557,-4.9524,-4.9667,-4.9667,-4.9788,-4.9837,-4.9816,-4.9929,-4.985,-4.9899,-4.9811,-4.9979,-5.0022,-4.9739,-4.9737,-4.9737,-4.9736,-4.9735,-4.963,-4.9677,-4.971,-4.9829,-4.9922,-4.9938,-5.0048,-5.0044,-5.0041,-5.009,-5.0131,-5.0129,-5.0126,-5.011,-5.0111,-5.0112,-5.0112,-5.0113,-5.0113,-4.9795,-4.9829,-4.9922,-5.0002,-5.0054,-5.0124,-5.0172,-5.0224,-5.028,-5.0269,-5.0269,-5.0238,-4.9996,-4.9934,-5.0124,-5.0122,-5.012,-5.0119,-5.0119,-5.0064,-5.0004,-5.0148,-5.0201,-5.0295,-5.0387,-5.0383,-5.049,-5.0532,-5.0587,-5.0548,-5.037,-5.0351,-5.0331,-5.028,-5.0547,-5.0547,-5.0547,-5.0548,-5.0208,-5.0199,-5.0346,-5.0432,-5.0516,-5.0527,-5.0691,-5.0731,-5.0763,-5.079,-5.0752,-5.0684,-5.0664,-5.0657,-5.063,-5.0582,-5.0921,-5.0921,-5.0921,-5.0374,-5.0373,-5.0512,-5.0544,-5.0618,-5.0682,-5.0836,-5.0937,-5.096,-5.0937,-5.0811,-5.0795,-5.0686,-5.0651,-5.062,-5.0579,-5.0491,0,0]},{"header":{"parameterUnit":"m.s-1","parameterCategory":1,"la1":30.2992,"la2":30.254,"lo1":-89.0895,"lo2":-89.0443,"dy":0.0025,"dx":0.0025,"nx":19,"ny":19,"refTime":"2026-05-18T21:00:00:Z","depth":0,"parameterNumber":3,"parameterNumberName":"V-component_of_WINDS"},"data":[0,0,0,1.7696,1.7697,1.7729,1.7729,1.777,1.777,0,0,0,0,0,0,0,0,0,0,0,1.7687,1.7687,1.7696,1.7697,1.7729,1.7729,1.777,1.777,0,0,0,0,0,0,0,0,0,0,0,1.7687,1.7687,1.7687,1.7697,1.7729,1.7729,1.777,1.7746,0,0,0,0,0,0,0,0,0,0,1.7715,1.7705,1.7687,1.7687,1.7697,1.7729,1.7729,1.7745,1.7747,1.7755,0,1.7763,0,1.7767,1.7773,1.7773,0,0,0,1.7697,1.7703,1.7712,1.7687,1.7698,1.7729,1.7715,1.7746,1.7749,1.7759,1.7763,1.7765,1.7768,1.7773,1.7774,1.7823,1.7823,0,0,1.7695,1.7692,1.771,1.7714,1.7709,1.7714,1.7716,1.7748,1.7752,1.7763,1.7766,1.7769,1.7774,1.7774,1.7823,1.7823,0,0,0,1.769,1.7691,1.7699,1.7712,1.7718,1.7715,1.7717,1.7751,1.7754,1.7766,1.7769,1.7774,1.7774,1.7822,1.7823,1.7832,0,0,0,1.7689,1.7688,1.7698,1.7697,1.7718,1.7735,1.7719,1.7752,1.7755,1.7769,1.7774,1.7775,1.7822,1.7823,1.7831,1.7837,0,0,0,1.7685,1.7687,1.7692,1.7696,1.771,1.7735,1.7739,1.7752,1.7757,1.7773,1.7775,1.7822,1.7823,1.7831,1.7835,1.7849,0,0,0,1.7679,1.7698,1.7692,1.7716,1.771,1.774,1.7739,1.7762,1.7777,1.7774,1.7822,1.7823,1.783,1.7835,1.7849,1.7861,1.7865,0,0,1.7702,1.7701,1.7716,1.7711,1.7742,1.7736,1.7768,1.7784,1.7788,1.7811,1.7812,1.7832,1.7835,1.7849,1.7893,1.7897,0,0,0,1.7722,1.7732,1.7741,1.7756,1.777,1.7782,1.7794,1.78,1.7821,1.7799,1.784,1.7843,1.7851,1.7857,1.786,1.7868,1.7825,1.7825,1.7825,1.7749,1.7755,1.778,1.779,1.7804,1.7817,1.783,1.784,1.784,1.785,1.7857,1.7883,1.789,1.7892,1.79,1.7864,1.7864,1.7864,1.7864,1.7784,1.78,1.7802,1.7826,1.7833,1.7853,1.7867,1.7867,1.7887,1.7878,1.7885,1.7875,1.7896,1.7903,1.7865,1.7864,1.7864,1.7864,1.7864,1.7803,1.7811,1.782,1.7844,1.7862,1.7871,1.7891,1.7895,1.7899,1.7907,1.7915,1.7915,1.7916,1.7911,1.7911,1.7911,1.7911,1.7911,1.7911,1.7818,1.7828,1.7845,1.7863,1.7874,1.789,1.7905,1.7916,1.793,1.7931,1.7931,1.7931,1.7897,1.7889,1.7913,1.7912,1.7912,1.7912,1.7912,1.7851,1.7845,1.7871,1.7883,1.7906,1.7924,1.793,1.7953,1.7963,1.7973,1.7971,1.7946,1.7945,1.7942,1.7935,1.797,1.797,1.797,1.797,1.7867,1.7868,1.7896,1.7915,1.7934,1.7943,1.7972,1.7985,1.7997,1.8004,1.8,1.7991,1.7988,1.7989,1.7985,1.7979,1.8024,1.8024,1.8024,1.7888,1.7892,1.7916,1.7929,1.7948,1.7964,1.7992,1.8014,1.8026,1.8026,1.8009,1.8007,1.7993,1.7988,1.7987,1.7981,1.7969,0,0]}]]